Showing default

PARUS-6U1, 68456

Orbit data source: Space-Track

PARUS-6U1, 68456 is a Taiwanese payload satellite in SSO that was launched on Mon, 30 Mar 2026 UTC via an FALCON 9 launch vehicle from the Air Force Western Test Range (AFWTR). Payload-class satellites include a variety of spacecraft equipped with specific instruments for various scientific and technological missions. These include communications satellites like Starlink; space stations such as the ISS; scientific satellites like the Hubble; Earth observation satellites from companies like Planet Labs, Umbra, and HawkEye 360; GPS; miniature CubeSats for education and research; and military/defense satellites.

Loading next visibility...
Identifier
68456, 2026-067AS
Orbit
SSO
Country
Flag of TWTW / TWN
Related business
Manufacturer
TAIPT
Mission
Operational spacecraft
Bus & Motor
CUBESAT 6U, Unknown motor
Mass
~10 kg wet, ~10 kg dry
Launch date (UTC)
2026-03-30 (3 months ago)
Launch vehicle
FALCON 9
Launch site
Air Force Western Test Range (AFWTR)
Object type
Payload
Rocket body
Debris
Shape & HBR
Unknown shape, 0.1 m
Radar Cross Section
Medium (>0.1 m² and <1 m²)

Expand to show TLE details & history
Last TLE update: 2 days ago

TLE from 2 days ago
0 PARUS-6U1
1 68456U 26067AS  26171.35349334  .00004924  00000-0  24855-3 0  9997
2 68456  97.4554 129.6681 0007294  63.6865 296.5117 15.17545160 12418
Epoch: 2026-06-20T08:29Z
TLE epoch observation values (Epoch: 2026-06-20T08:29:01.824Z)
Latitude
-0.00004°
Longitude
93.84117°
Altitude
514.107 km
Speed
7.608 km/s
True Right ascension
08h 38m 40s
True Declination
0° 00' 00"
Sunlit
Object was in daylight at epoch
Visualization orbit readout
Latitude
Unknown
Longitude
Unknown
Altitude
Unknown
Speed
Unknown
Apparent Right ascension
Unknown
Apparent Declination
Unknown
Sunlit
N/A
Visualization observer readout
Local Sidereal Time
16:35:35
Azimuth
Unknown
Elevation
Unknown
Doppler factor
Unknown
Orbital elements
Apogee altitude
515.258 km
Perigee altitude
505.209 km
Semi-major axis
6,888.371 km
Eccentricity
0.00073
Inclination
97.4554°
RAAN
129.6681°
Arg. of periapsis
63.6865°
True anomaly
296.43688°
Mean anomaly
296.5117°
Eccentric anomaly
296.47429°
Mean motion
3.79637 °/min
Orbital period
94.83 mins
BSTAR
0.00024855
Loading maneuver chart data...
Computing Atmospheric mass density...
Loading historical data...
Loading historical data...
Loading historical data...
Loading historical data...
Loading historical data...
Loading historical data...
Loading historical data...

Documentation

Showing up to 5 results
|